EW7119 Weather Reports


time (UTC)temp
C
wind
direction
speed
KPH
gust
KPH
rain 1hr
cm
rain 24hr
cm
rain mn
cm
humidity
%
barometer
mb
20260905040044 17 144 0.0 11.3 0.00 0.00 0.00 45 1002.4
20260905034552 17 157 0.0 12.9 0.00 0.00 0.00 45 1002.4
20260905033059 17 150 0.0 17.7 0.00 0.00 0.00 46 1002.4
20260905031552 17 138 0.0 17.7 0.00 0.00 0.00 45 1002.2
20260905030039 17 135 0.0 3.2 0.00 0.00 0.00 44 1002.3
20260905024525 17 141 0.0 1.6 0.00 0.00 0.00 44 1002.2
20260905023047 17 104 0.0 1.6 0.00 0.00 0.00 45 1002.0
20260905021553 17 155 0.0 9.7 0.00 0.00 0.00 45 1001.8
20260905020108 18 133 0.0 11.3 0.00 0.00 0.00 44 1001.6
20260905014559 18 123 0.0 14.5 0.00 0.00 0.00 43 1001.4
20260905013103 19 132 0.0 25.7 0.00 0.00 0.00 41 1001.4
20260905011617 20 132 3.2 17.7 0.00 0.00 0.00 38 1001.4
20260905010110 20 130 0.0 12.9 0.00 0.00 0.00 36 1001.3
20260905004606 21 143 1.6 17.7 0.00 0.00 0.00 34 1001.4
20260905003108 21 165 0.0 12.9 0.00 0.00 0.00 33 1001.5
20260905001610 22 161 0.0 1.6 0.00 0.00 0.00 31 1001.4
20260905000119 22 142 0.0 11.3 0.00 0.00 0.00 31 1001.5
20260904234612 22 157 1.6 16.1 0.00 0.00 0.00 31 1001.4
20260904233100 22 175 0.0 1.6 0.00 0.00 0.00 30 1001.4
20260904231556 22 168 0.0 0.0 0.00 0.00 0.00 30 1001.2
20260904230053 23 157 0.0 1.6 0.00 0.00 0.00 29 1001.2
20260904224609 23 144 0.0 3.2 0.00 0.00 0.00 29 1001.1
20260904223110 22 133 0.0 1.6 0.00 0.00 0.00 30 1001.2
20260904221506 22 140 0.0 0.0 0.00 0.00 0.00 29 1001.2
20260904220014 22 155 0.0 6.4 0.00 0.00 0.00 31 1001.4
20260904214609 22 175 0.0 11.3 0.00 0.00 0.00 30 1001.5
20260904213108 23 142 0.0 17.7 0.00 0.00 0.00 29 1001.4
20260904211612 23 128 4.8 22.5 0.00 0.00 0.00 28 1001.4
20260904210112 24 166 0.0 14.5 0.00 0.00 0.00 27 1001.6
20260904204502 24 112 0.0 19.3 0.00 0.00 0.00 27 1001.7
20260904203002 24 245 4.8 16.1 0.00 0.00 0.00 27 1001.9
20260904201505 24 270 0.0 3.2 0.00 0.00 0.00 29 1001.9
20260904200124 23 275 0.0 11.3 0.00 0.00 0.00 28 1002.1
20260904194505 21 290 0.0 0.0 0.00 0.00 0.00 34 1002.2
20260904193006 21 210 0.0 0.0 0.00 0.00 0.00 33 1002.4
20260904191514 21 146 0.0 6.4 0.00 0.00 0.00 34 1002.5
20260904190133 21 123 0.0 0.0 0.00 0.00 0.00 36 1002.6
20260904184557 22 329 0.0 9.7 0.00 0.00 0.00 32 1002.7
20260904183045 21 257 0.0 0.0 0.00 0.00 0.00 34 1002.7
20260904181553 21 257 0.0 0.0 0.00 0.00 0.00 35 1003.1
20260904180104 22 185 0.0 11.3 0.00 0.00 0.00 33 1003.2
20260904174523 21 298 0.0 11.3 0.00 0.00 0.00 34 1003.3
20260904173007 21 242 0.0 16.1 0.00 0.00 0.00 34 1003.3
20260904171524 22 173 0.0 14.5 0.00 0.00 0.00 33 1003.3
20260904170045 21 252 0.0 4.8 0.00 0.00 0.00 34 1003.2
20260904164556 20 312 1.6 11.3 0.00 0.00 0.00 34 1003.3
20260904163058 20 290 0.0 3.2 0.00 0.00 0.00 36 1003.3
20260904161551 20 147 1.6 19.3 0.00 0.00 0.00 39 1003.4
20260904160055 18 260 0.0 0.0 0.00 0.00 0.00 40 1003.6
20260904154556 19 257 0.0 0.0 0.00 0.00 0.00 38 1003.7
20260904153050 18 266 0.0 0.0 0.00 0.00 0.00 38 1003.7
20260904151548 18 184 0.0 0.0 0.00 0.00 0.00 41 1003.6
20260904150121 17 128 0.0 0.0 0.00 0.00 0.00 42 1003.6
20260904144533 16 217 0.0 0.0 0.00 0.00 0.00 42 1003.5
20260904143023 16 123 0.0 0.0 0.00 0.00 0.00 46 1003.5
20260904141548 15 123 0.0 0.0 0.00 0.00 0.00 48 1003.5
20260904140056 13 148 0.0 0.0 0.00 0.00 0.00 52 1003.3
20260904134625 12 148 0.0 0.0 0.00 0.00 0.00 54 1003.3
20260904133005 12 148 0.0 0.0 0.00 0.00 0.00 54 1003.0
20260904131520 11 148 0.0 0.0 0.00 0.00 0.00 54 1002.8
20260904130032 11 213 0.0 0.0 0.00 0.00 0.00 52 1002.7
20260904124529 11 213 0.0 0.0 0.00 0.00 0.00 52 1002.5
20260904123052 12 214 0.0 0.0 0.00 0.00 0.00 51 1002.5
20260904121600 11 92 0.0 0.0 0.00 0.00 0.00 51 1002.4
20260904120110 11 92 0.0 0.0 0.00 0.00 0.00 53 1002.3
20260904114504 11 92 0.0 0.0 0.00 0.00 0.00 51 1002.2
20260904113113 11 92 0.0 0.0 0.00 0.00 0.00 50 1002.2
20260904111608 11 92 0.0 0.0 0.00 0.00 0.00 50 1002.3
20260904110059 11 92 0.0 0.0 0.00 0.00 0.00 47 1002.2
20260904104558 11 92 0.0 0.0 0.00 0.00 0.00 47 1002.3
20260904103056 11 92 0.0 0.0 0.00 0.00 0.00 47 1002.1
20260904101602 11 92 0.0 0.0 0.00 0.00 0.00 46 1002.1
20260904100054 11 77 0.0 0.0 0.00 0.00 0.00 46 1001.9
20260904094546 11 97 0.0 0.0 0.00 0.00 0.00 47 1001.8
20260904093106 11 90 0.0 0.0 0.00 0.00 0.00 46 1001.6
20260904091600 11 90 0.0 0.0 0.00 0.00 0.00 46 1001.6
20260904090105 11 90 0.0 0.0 0.00 0.00 0.00 46 1001.6
20260904084510 11 81 0.0 0.0 0.00 0.00 0.00 47 1001.6
20260904083019 11 81 0.0 0.0 0.00 0.00 0.00 48 1001.4
20260904081515 11 121 0.0 0.0 0.00 0.00 0.00 48 1001.5
20260904080134 11 121 0.0 0.0 0.00 0.00 0.00 47 1001.7
20260904074504 11 121 0.0 0.0 0.00 0.00 0.00 48 1001.6
20260904073135 12 121 0.0 0.0 0.00 0.00 0.00 46 1001.6
20260904071602 13 121 0.0 0.0 0.00 0.00 0.00 42 1001.5
20260904070131 13 121 0.0 0.0 0.00 0.00 0.00 41 1001.4
20260904064507 14 121 0.0 0.0 0.00 0.00 0.00 39 1001.4
20260904063022 13 121 0.0 0.0 0.00 0.00 0.00 41 1001.2
20260904061522 13 121 0.0 0.0 0.00 0.00 0.00 42 1001.2
20260904060028 13 173 0.0 0.0 0.00 0.00 0.00 44 1001.2
20260904054537 14 216 0.0 0.0 0.00 0.00 0.00 43 1001.2
20260904053043 15 216 0.0 0.0 0.00 0.00 0.00 44 1001.2
20260904051527 15 216 0.0 0.0 0.00 0.00 0.00 44 1001.3
20260904050047 16 261 0.0 0.0 0.00 0.00 0.00 40 1001.4
20260904044555 17 146 0.0 1.6 0.00 0.00 0.00 41 1001.3
20260904043109 17 150 0.0 12.9 0.00 0.00 0.00 39 1001.5
20260904041615 16 131 0.0 3.2 0.00 0.00 0.00 37 1001.6